Location: *
(42.1353°N, 3.0761°E)
Time: 14:05:10
(UTC+00:00)

Daily predictions for brighter satellites

Satellite Brightness Start Highest point End
(mag) Time Altitude Azimuth Time Altitude Azimuth Time Altitude Azimuth
CZ-2C R/B 3.8 19:44:24 10° SE 19:49:24 38° ENE 19:54:11 10° N
Cosmos 1697 Rocket 3.7 19:45:19 10° SW 19:50:48 54° WNW 19:56:20 10° NNE
Cosmos 2360 Rocket 4.1 19:51:57 10° ESE 19:52:36 10° E 19:53:15 10° E
Cosmos 1110 Rocket 4.3 19:47:28 10° NNW 19:52:44 73° WSW 19:57:59 10° S
Meteor 1-27 4.4 19:49:36 10° N 19:55:29 82° E 20:01:18 10° SSE
ADEOS Rocket 3.1 19:50:20 10° NNE 19:55:42 43° E 20:00:52 10° S
Cosmos 1242 Rocket 4.1 19:53:31 10° SE 19:56:09 19° E 19:58:48 10° NE
Cosmos 1725 Rocket 4.4 19:50:03 10° SSW 19:56:18 72° W 20:02:38 10° N
Cosmos 1980 Rocket 2.3 19:50:52 10° SSW 19:56:30 86° WNW 20:02:09 10° NNE
Cosmos 332 Rocket 4.4 19:52:31 10° N 19:57:07 43° ENE 20:01:40 10° SE
Cosmos 1340 Rocket 3.8 19:56:22 10° N 20:00:04 32° ENE 20:03:45 10° SE
Resurs 01 Rocket 1.7 19:56:40 10° SSE 20:01:05 69° ENE 20:05:30 10° N
Cosmos 1869 4.1 19:57:29 10° N 20:01:09 35° ENE 20:04:46 10° SE
USA 215 3.9 19:54:54 10° NE 20:01:21 63° NW 20:07:47 10° WSW
MetOp-A 4.3 19:57:42 10° SSE 20:03:00 65° ENE 20:08:18 10° N
Spot 2 Rocket 3.9 20:00:46 10° SE 20:05:37 47° ENE 20:10:31 10° N
Meteor 2-2 Rocket 4.3 20:00:25 10° N 20:06:05 84° E 20:11:46 10° S
BREEZE-M DEB (TANK) 4.4 20:03:53 10° SSE 20:06:23 14° SE 20:08:43 10° E
Gbstr 26 Del rocket 2.7 20:04:54 10° SW 20:09:05 66° SE 20:12:51 10° ENE
Cosmos 1455 4.4 20:08:53 10° NW 20:12:00 25° W 20:15:06 10° SW
Cosmos 44 Rocket 4.4 20:09:55 10° SSE 20:14:06 25° ESE 20:18:14 10° ENE
Cosmos 2233 Rocket 4.2 20:09:24 10° S 20:15:41 80° W 20:22:03 10° N
Cosmos 44 3.5 20:13:33 10° SSW 20:18:52 89° NW 20:23:58 10° NNE
MTI 3.7 20:17:32 10° NNE 20:20:40 66° ESE 20:23:49 10° S
Cosmos 2322 Rocket 2.6 20:15:36 10° S 20:20:54 41° ESE 20:26:13 10° NE
Cosmos 921 Rocket 4.5 20:17:56 10° N 20:21:21 23° ENE 20:24:13 13° ESE
CZ-2C R/B 3.3 20:18:21 10° NNE 20:23:04 33° E 20:27:39 10° SSE
SL-16 R/B 2.4 20:19:52 10° S 20:25:18 51° ESE 20:30:48 10° NE
Cosmos 2058 3.0 20:24:17 10° S 20:28:28 85° W 20:32:42 10° N
BREEZE-M DEB (TANK) 4.3 20:25:56 10° WNW 20:29:49 44° SSW 20:40:39 13° SE
BREEZE-M DEB (TANK) 3.6 20:28:31 10° WNW 20:30:34 17° WSW 20:32:03 10° S
Cosmos 1151 Rocket 3.9 20:28:21 10° N 20:32:20 33° ENE 20:35:05 17° SE
Cosmos 2221 4.5 20:30:51 10° NNW 20:34:36 28° W 20:38:21 10° SSW
USA 267 3.3 20:28:47 13° SE 20:34:41 87° NE 20:41:16 10° NW
H-2A R/B 3.2 20:30:32 10° S 20:35:42 44° W 20:40:53 10° NNW
Cosmos 1328 Rocket 4.1 20:32:32 10° N 20:36:44 42° ENE 20:39:35 18° SE
Cosmos 1825 4.1 20:36:49 13° E 20:37:30 14° E 20:39:30 10° NE
Cosmos 2034 Rocket 4.4 20:32:35 11° SSE 20:38:12 45° E 20:44:07 10° NNE
Tiangong 2 1.1 20:37:13 10° W 20:40:21 81° N 20:42:38 17° E
SPOT 5 4.0 20:37:51 16° ESE 20:41:09 32° ENE 20:45:29 10° N
Cosmos 1271 Rocket 4.5 20:37:55 10° SW 20:41:27 34° WNW 20:45:05 10° N
BREEZE-M DEB (TANK) 4.1 20:39:17 10° SSW 20:42:56 42° SE 20:53:55 10° ENE
ARGOS 4.4 20:38:05 10° SSW 20:43:07 39° W 20:48:11 10° NNW
EO 1 Del DPAF 3.4 20:39:39 10° NNE 20:43:22 49° E 20:46:12 16° S
Cosmos 1461 2.8 20:43:36 10° NW 20:47:34 78° WSW 20:50:05 22° SSE
Cosmos 1844 Rocket 4.4 20:43:46 10° N 20:48:03 21° NE 20:51:56 11° E
In-Cosmos 22 Rocket 4.1 20:44:58 10° S 20:50:20 80° E 20:55:52 10° NNE
DMSP B5D2-2 4.3 20:45:19 10° N 20:50:31 72° WNW 20:55:42 10° SSW
Cosmos 2263 Rocket 2.2 20:46:32 10° NNW 20:52:16 90° WSW 20:56:25 19° SSE
Timation 1 Rocket 4.5 20:50:23 10° NNW 20:56:22 65° ENE 21:00:17 22° SE
SL-4 R/B 3.7 21:00:20 21° ESE 21:00:20 21° ESE 21:02:53 10° E
Thor Agena Rocket 3.6 20:54:42 10° NNE 20:59:39 52° E 21:03:08 19° S
Cosmos 1892 2.6 21:00:30 16° S 21:03:28 90° ESE 21:07:20 10° N
Cosmos 2251 Rocket 4.2 20:58:49 10° SW 21:03:57 55° WNW 21:09:06 10° NNE
SWARM A 4.2 21:03:34 32° SSE 21:04:57 70° E 21:08:18 10° N
Cosmos 407 Rocket 4.3 21:03:34 24° SE 21:05:41 33° E 21:10:25 10° NE
Cosmos 1464 Rocket 4.1 20:59:42 10° S 21:06:01 81° W 21:12:17 10° N
ERBS 4.1 21:03:35 10° WNW 21:06:14 22° SW 21:07:29 18° SSW
ISS -3.8 21:04:00 10° SW 21:07:17 58° SE 21:10:34 10° ENE
Cosmos 1238 Rocket 4.2 21:00:58 10° S 21:07:27 79° W 21:14:08 10° N
Cosmos 1743 Rocket 3.7 21:09:10 28° SSE 21:11:17 56° E 21:15:35 10° NNE
Landsat 4 4.4 21:08:19 10° NNE 21:11:42 32° E 21:12:03 31° ESE
Landsat 7 3.8 21:09:56 26° SSE 21:12:37 79° ENE 21:17:24 10° N
Cosmos 2151 3.9 21:09:41 10° SSW 21:13:49 49° W 21:18:00 10° N
COSMOS 2428 4.2 21:14:20 18° ESE 21:14:35 18° E 21:18:22 10° ENE
USA 229 DEB 4.0 21:10:38 15° S 21:15:36 42° ESE 21:21:55 10° NE
USA 229 4.0 21:10:53 16° S 21:15:43 41° ESE 21:22:00 10° NE
USA 245 3.2 21:19:53 32° WSW 21:20:00 33° W 21:22:03 10° NNW
ERS-1 Rocket 2.9 21:17:30 26° SSE 21:20:25 86° WSW 21:25:29 10° NNW
Cosmos 1515 Rocket 3.4 21:17:43 10° N 21:22:06 85° E 21:23:58 34° S
Iridium 4 Rocket 4.3 21:16:23 10° N 21:22:12 59° W 21:27:16 13° SSW
MOS 1 Rocket 3.8 21:20:09 10° NNE 21:24:18 37° E 21:25:15 34° SE
SPOT 1/Viking Rocket 3.6 21:22:40 27° S 21:25:36 80° WSW 21:30:50 10° NNW
Cosmos 614 Rocket 4.3 21:25:44 33° SSE 21:27:20 44° ESE 21:32:08 10° NNE
Cosmos 2026 Rocket 4.5 21:25:08 10° N 21:30:54 43° ENE 21:33:22 30° SE
IGS 5A 3.5 21:30:07 35° S 21:31:48 72° W 21:35:58 10° NNW
Cosmos 1933 3.4 21:27:53 10° N 21:31:55 62° E 21:32:51 47° SE
Cosmos 2360 Rocket 2.1 21:30:52 15° SSW 21:35:37 81° ESE 21:41:17 10° NNE
Cosmos 1805 Rocket 4.2 21:36:23 36° ESE 21:36:50 37° E 21:40:52 10° NNE
Cosmos 2228 Rocket 3.1 21:32:46 10° N 21:37:20 88° ENE 21:38:56 41° S
Resurs 01 Rocket 4.4 21:36:42 10° WSW 21:38:01 11° W 21:39:20 10° WNW
Terra 1.7 21:40:01 41° SSE 21:41:40 78° ENE 21:46:26 10° N
Cosmos 292 Rocket 4.3 21:39:20 10° N 21:44:00 45° ENE 21:45:20 36° ESE
Cosmos 1900 4.4 21:41:18 10° SSW 21:46:27 83° WNW 21:51:39 10° NNE
SeaSat 1 4.3 21:43:43 10° ENE 21:45:34 15° E 21:45:34 15° E
Cosmos 1606 2.7 21:44:18 10° N 21:48:02 59° E 21:48:14 58° E
DELTA 2 R/B (1) 3.7 21:45:46 10° WSW 21:51:08 50° SSE 21:52:51 37° ESE
Meteor 2-11 Rocket 4.4 21:49:10 27° S 21:52:41 85° W 21:58:48 10° N
Meteor 2-3 Rocket 3.7 21:51:22 36° S 21:53:52 77° E 21:59:41 10° NNE
CARTOSAT-1 4.0 21:52:40 37° SSW 21:54:01 54° W 21:58:15 10° NNW
Cosmos 44 Rocket 4.4 21:50:27 10° SW 21:55:24 46° NW 22:00:16 10° NNE
Cosmos 1666 Rocket 4.5 21:57:00 34° E 21:57:00 34° E 22:01:00 10° NNE
Meteor 1-26 Rocket 4.1 21:51:56 10° N 21:57:38 81° E 21:59:28 44° SSE
Cosmos 921 Rocket 4.4 21:55:53 10° NW 21:59:38 31° W 22:01:01 25° SW
Cosmos 1633 Rocket 4.1 22:01:28 29° E 22:01:28 29° E 22:04:55 10° NNE
Cosmos 2333 4.2 22:01:07 42° S 22:02:57 65° ESE 22:08:35 10° NNE
CZ-2C R/B 4.3 21:58:44 10° N 22:03:16 31° WNW 22:07:45 10° SW
Cosmos 1408 4.1 22:01:59 25° WSW 22:03:26 34° WNW 22:06:51 10° N
Cosmos 2322 Rocket 4.0 22:00:02 10° WSW 22:05:03 31° NW 22:10:05 10° N
Cosmos 2333 Rocket 2.5 22:04:57 43° SE 22:05:37 45° ESE 22:11:02 10° NE
Cosmos 2219 Rocket 2.4 22:06:34 45° SE 22:07:17 47° ESE 22:12:43 10° NE
SL-16 R/B 4.3 22:05:02 10° WSW 22:09:42 26° NW 22:14:24 10° N
Mayak -0.6 22:06:31 10° NNE 22:10:10 41° E 22:10:10 41° E
Cosmos 1825 3.4 22:11:37 30° WSW 22:12:40 36° WNW 22:16:11 10° N
Cosmos 1627 Rocket 4.4 22:06:53 10° N 22:13:02 83° W 22:15:17 42° S
Cosmos 2278 Rocket 3.7 22:08:25 10° N 22:13:08 26° NE 22:15:33 19° E
Cosmos 1356 Rocket 4.3 22:12:18 10° NNW 22:16:21 42° W 22:17:11 37° SW
Tiangong 2 3.6 22:13:59 10° W 22:14:47 16° W 22:14:47 16° W
SPOT 5 4.3 22:17:05 24° SW 22:19:08 32° W 22:23:34 10° NW
Cosmos 2322 3.8 22:16:22 28° SW 22:19:26 74° WNW 22:25:07 10° NNE
Cosmos 676 Rocket 3.9 22:18:40 54° S 22:19:52 83° ESE 22:25:08 10° NNE
Lacrosse 5 rocket 4.4 22:18:36 10° NNW 22:21:06 14° NNE 22:23:34 10° NE
Sich 1 2.8 22:23:01 84° SSE 22:23:08 87° E 22:27:26 10° N
NOSS 3-1 (C) 3.3 22:26:24 27° SW 22:29:35 79° NW 22:35:57 10° NE
Cosmos 2279 Rocket 3.9 22:27:57 48° S 22:29:50 86° E 22:36:04 10° N
IRAS Rocket 4.4 22:28:26 48° SSW 22:29:51 66° WSW 22:35:28 10° NNW
Helios 1B rocket 3.8 22:27:11 10° NNE 22:29:54 28° ENE 22:29:54 28° ENE
ATLAS CENTAUR R/B 3.8 22:29:01 10° N 22:32:23 19° NE 22:34:37 14° ENE
Cosmos 1844 Rocket 2.8 22:26:48 10° NNW 22:32:26 65° WSW 22:33:35 52° SSW
Cosmos 1954 Rocket 4.0 22:34:38 52° SW 22:35:55 78° WNW 22:41:13 10° NNE
Cosmos 1782 3.0 22:33:36 10° NNW 22:37:20 68° WNW 22:37:20 68° WNW
ASTEX 1 4.0 22:33:23 10° N 22:38:14 52° W 22:39:36 40° SW
SL-4 R/B 2.4 22:35:33 23° WSW 22:38:32 77° NNW 22:43:17 10° NE
Meteor 1-10 Rocket 4.2 22:34:02 10° N 22:39:39 68° E 22:40:37 57° SE
Cosmos 1850 Rocket 4.4 22:39:47 47° E 22:39:47 47° E 22:44:48 10° NNE
Cosmos 2084 Rocket 3.6 22:36:18 10° NNW 22:40:35 67° NE 22:40:35 67° NE
Cosmos 1862 4.0 22:43:09 46° NE 22:43:09 46° NE 22:46:16 10° NNE
COSMOS 2455 4.4 22:44:47 21° E 22:44:47 21° E 22:48:16 10° ENE
ISS -1.5 22:41:17 10° W 22:44:09 26° NNW 22:47:02 10° NE
Cosmos 1400 Rocket 4.4 22:43:26 10° NNE 22:46:38 27° ENE 22:46:38 27° ENE
Cosmos 1140 Rocket 4.4 22:48:59 28° WSW 22:51:12 44° WNW 22:56:11 10° N
Cosmos 1707 Rocket 4.1 22:50:56 10° NNW 22:55:13 48° W 22:55:14 48° W
Lacrosse 5 4.3 22:51:42 10° NNW 22:55:20 19° NNE 22:58:56 10° ENE
COSMOS 2428 3.0 22:56:18 41° SW 22:58:14 65° WNW 23:03:57 10° NNE
Cosmos 1812 4.1 22:56:15 10° N 22:59:00 32° NE 22:59:00 32° NE
SL-16 R/B 3.9 23:02:03 19° E 23:02:03 19° E 23:05:16 10° NE
Cosmos 1607 3.8 22:56:49 10° NW 23:02:56 68° WSW 23:03:46 60° SSW
Meteor 2-6 Rocket 4.2 22:59:11 10° NNW 23:04:34 67° W 23:05:13 62° SW
Cosmos 1844 4.3 23:00:34 10° NW 23:05:50 43° WSW 23:06:20 42° WSW
SL-8 R/B 3.7 23:01:42 10° WNW 23:06:00 71° WNW 23:06:00 71° WNW
ERS-2 3.8 23:09:02 28° NE 23:09:02 28° NE 23:11:32 10° N
Cosmos 1655 Rocket 4.2 23:02:53 10° NNW 23:09:04 63° W 23:10:23 51° SW
NOSS 3-1 (A) 3.6 23:07:04 35° WSW 23:09:26 64° NW 23:15:47 10° NNE
Cosmos 1980 3.6 23:11:32 69° SE 23:11:46 70° ESE 23:17:27 10° NNE
Helios 1A 4.1 23:12:39 36° W 23:12:39 36° W 23:16:03 10° NNW
YAOGAN 11 4.3 23:13:01 64° NW 23:13:01 64° NW 23:16:49 10° NNW
ARGOS Delta rocket 3.8 23:13:31 65° WNW 23:13:31 65° WNW 23:17:37 10° NNW
Cosmos 2242 Rocket 3.7 23:11:24 10° N 23:15:33 72° NNE 23:15:33 72° NNE
Cosmos 2237 Rocket 2.0 23:19:28 74° SE 23:19:41 75° ESE 23:25:19 10° NNE
Terra 4.3 23:18:55 10° WSW 23:19:57 11° W 23:21:14 10° WNW
NOSS 2-3 (E) 3.7 23:21:21 77° NNW 23:21:21 77° NNW 23:26:16 10° NE
NOSS 0 Rocket 3.8 23:20:00 61° SSW 23:21:12 87° WNW 23:27:24 10° NNE
NOSS 2-3 (D) 3.8 23:24:06 76° N 23:24:06 76° N 23:28:56 10° NE
SeaSat 1 2.6 23:19:50 10° NNE 23:24:44 66° WNW 23:25:20 60° W
Cosmos 468 Rocket 3.9 23:20:13 10° NNW 23:25:31 86° ENE 23:25:40 84° ESE
Cosmos 1763 Rocket 3.6 23:21:12 10° NNW 23:26:21 66° ENE 23:26:38 64° E
Cosmos 1818 4.0 23:22:20 10° NW 23:27:17 48° WSW 23:27:17 48° WSW
Cosmos 1703 Rocket 4.2 23:23:28 10° N 23:27:21 50° NE 23:27:21 50° NE
ALOS 2 2.9 23:28:50 61° NW 23:28:50 61° NW 23:32:37 10° NNW
Meteor 1-27 Rocket 3.7 23:25:17 10° NNW 23:31:10 75° W 23:31:49 67° SW
Cosmos 2208 Rocket 4.1 23:25:53 10° NNW 23:31:20 68° ENE 23:31:46 65° E
Cosmos 1933 Rocket 4.1 23:37:12 55° NW 23:37:12 55° NW 23:41:08 10° N
GP-B 3.8 23:35:18 10° N 23:39:14 46° WNW 23:39:14 46° WNW
Cosmos 2285 Rocket 3.9 23:43:15 62° SE 23:43:54 66° ESE 23:50:09 10° NNE
Cosmos 1932 4.5 23:37:57 10° NNW 23:44:25 82° ENE 23:45:49 58° SE
Cosmos 1570 Rocket 3.9 23:40:26 10° NNW 23:45:35 78° W 23:45:35 78° W
Mayak 1.0 23:43:01 10° NNW 23:45:50 17° WNW 23:46:45 16° W
Meteor 1-20 Rocket 4.5 23:47:09 54° ESE 23:47:31 55° E 23:53:11 10° NNE
Cosmos 2297 4.4 23:43:18 10° NNW 23:48:44 46° ENE 23:50:12 38° E
Cosmos 1867 4.1 23:47:46 43° W 23:49:05 54° NW 23:54:29 10° NNE
CZ-4 R/B 3.8 23:45:13 10° N 23:49:40 75° NW 23:49:40 75° NW
Cosmos 2333 Rocket 3.8 23:46:54 18° W 23:50:03 29° NW 23:54:59 10° N
Cosmos 2219 Rocket 3.9 23:48:14 17° W 23:51:27 27° NW 23:56:16 10° N
Okean 1-7 3.5 23:48:52 10° N 23:52:25 59° N 23:52:25 59° N
